Location: Unspecified
(0.0000°N, 0.0000°E)
Time: 12:31:37
(UTC+00:00)

XW-2B - Visible Passes

Search period start: 19 June 2018 00:00
Search period end: 29 June 2018 00:00
Orbit: 509 x 530 km, 97.5° (Epoch: 19 June)

Date Brightness Start Highest point End Pass type
(mag) Time Alt. Az. Time Alt. Az. Time Alt. Az.
19 Jun ? 05:36:28 10° NNE 05:40:16 72° ESE 05:44:06 10° S visible
20 Jun ? 05:23:12 10° NNE 05:26:49 41° ESE 05:30:28 10° S visible
21 Jun ? 05:10:10 10° NE 05:13:22 25° ESE 05:16:35 10° SSE visible
21 Jun ? 18:39:23 10° WSW 18:40:35 11° WSW 18:41:47 10° W visible
22 Jun ? 04:57:30 10° ENE 04:59:55 16° ESE 05:02:20 10° SE visible
22 Jun ? 18:24:30 10° SSW 18:27:08 18° WSW 18:29:45 10° WNW visible
26 Jun ? 05:36:08 10° NNE 05:39:56 71° E 05:43:46 10° S visible
27 Jun ? 05:22:51 10° NNE 05:26:28 41° E 05:30:07 10° S visible
28 Jun ? 05:09:49 10° NE 05:13:01 25° ESE 05:16:13 10° SSE visible
28 Jun ? 18:38:57 10° WSW 18:40:12 11° WSW 18:41:26 10° W visible
